Location: Saint-Usage
(47.1052°N, 5.2587°E)
Time: 04:26:47
(UTC+02:00)

Nauka - Pass Details

Date: 23 September 2021
Orbit: 417 x 423 km, 51.6° (Epoch: 26 October)

Event Time Altitude Azimuth Distance (km) Brightness Sun altitude
Rises 21:41:40 0° 282° (WNW) 2,365 ? -21.8°
Reaches altitude 10° 21:43:53 10° 291° (WNW) 1,502 ? -22.2°
Enters shadow 21:46:52 36° 353° (N) 690 ? -22.6°
